Meridian, MS

8:27 PM CST on November 16, 2019 (GMT -0600)
Key

Weather History for KMEI - September, 2019

Change the Weather History Date:

Sunday, September 29, 2019

  Actual Average Record
Temperature  
Mean Temperature 82 °F 70 °F  
Max Temperature 96 °F 83 °F 95 °F (1986)
Min Temperature 68 °F 58 °F 34 °F (1967)
Degree Days  
Heating Degree Days 0 1  
Month to date heating degree days 0 5  
Since 1 July heating degree days 0 5  
Cooling Degree Days 17 6  
Month to date cooling degree days 531 298  
Year to date cooling degree days 2614 1918  
Growing Degree Days 32 (Base 50)    
Moisture  
Dew Point 67 °F    
Average Humidity 67    
Maximum Humidity 90    
Minimum Humidity 39    
Precipitation  
Precipitation 0.00 in 0.12 in 1.94 in (1913)
Month to date precipitation 0.23 3.31  
Year to date precipitation 43.18 42.27  
Sea Level Pressure  
Sea Level Pressure 30.11 in    
Wind  
Wind Speed 2 mph ()    
Max Wind Speed 15 mph    
Max Gust Speed 24 mph    
Visibility 10.0 miles    
Events      
T = Trace of Precipitation, MM = Missing Value Source: Averaged Metar Reports

Daily Weather History Graph

Daily Weather History Graph

Search for Another Location

Airport or City:

Astronomy

Sep. 29, 2019 Rise Set
Actual Time 6:47 AM CDT 6:42 PM CDT
Civil Twilight 6:23 AM CDT 7:07 PM CDT
Nautical Twilight 5:54 AM CDT 7:35 PM CDT
Astronomical Twilight 5:26 AM CDT 8:04 PM CDT
Moon 7:37 AM CDT (9/29) 7:45 PM CDT (9/29)
Length of Visible Light 12h 43m
Length of Day
11h 55m
New Moon, 1% of the Moon is Illuminated
Sep 29
New Moon
Oct 5
First Quarter
Oct 13
Full
Oct 21
Last Quarter
Oct 27
New

Hourly Weather History & Observations

Time (CDT) Temp. Heat Index Dew Point Humidity Pressure Visibility Wind Dir Wind Speed Gust Speed Precip Events Conditions
12:58 AM 72.0 °F - 66.9 °F 84% 30.08 in 10.0 mi Calm Calm - N/A   Clear
1:58 AM 70.0 °F - 66.0 °F 87% 30.09 in 10.0 mi Calm Calm - N/A   Clear
2:58 AM 70.0 °F - 66.0 °F 87% 30.08 in 10.0 mi Calm Calm - N/A   Clear
3:58 AM 69.1 °F - 64.9 °F 87% 30.10 in 10.0 mi Calm Calm - N/A   Clear
4:58 AM 69.1 °F - 64.9 °F 87% 30.12 in 10.0 mi Calm Calm - N/A   Clear
5:58 AM 68.0 °F - 64.9 °F 90% 30.14 in 10.0 mi Calm Calm - N/A   Clear
6:58 AM 68.0 °F - 64.9 °F 90% 30.16 in 9.0 mi Calm Calm - N/A   Scattered Clouds
7:58 AM 72.0 °F - 66.9 °F 84% 30.17 in 10.0 mi Calm Calm - N/A   Mostly Cloudy
9:58 AM 84.9 °F 88.8 °F 69.1 °F 59% 30.18 in 10.0 mi Variable 3.5 mph - N/A   Clear
10:58 AM 88.0 °F 90.7 °F 66.9 °F 49% 30.17 in 10.0 mi SSE 5.8 mph - N/A   Clear
11:58 AM 90.0 °F 93.6 °F 68.0 °F 48% 30.16 in 10.0 mi Variable 4.6 mph - N/A   Clear
12:58 PM 91.9 °F 95.9 °F 68.0 °F 45% 30.13 in 10.0 mi South 5.8 mph - N/A   Mostly Cloudy
1:58 PM 91.9 °F 95.9 °F 68.0 °F 45% 30.11 in 10.0 mi SE 4.6 mph - N/A   Mostly Cloudy
2:58 PM 95.0 °F 99.0 °F 66.9 °F 40% 30.08 in 10.0 mi SSE 5.8 mph - N/A   Partly Cloudy
3:58 PM 93.9 °F 97.5 °F 66.9 °F 41% 30.07 in 10.0 mi ESE 5.8 mph - N/A   Scattered Clouds
4:58 PM 93.9 °F 97.0 °F 66.0 °F 40% 30.06 in 10.0 mi ESE 9.2 mph - N/A   Clear
5:58 PM 93.0 °F 96.4 °F 66.9 °F 42% 30.06 in 10.0 mi SSE 5.8 mph - N/A   Clear
6:58 PM 86.0 °F 90.1 °F 69.1 °F 57% 30.07 in 10.0 mi Calm Calm - N/A   Partly Cloudy
7:58 PM 81.0 °F 84.4 °F 70.0 °F 69% 30.08 in 10.0 mi Calm Calm - N/A   Clear
8:58 PM 78.1 °F - 70.0 °F 76% 30.10 in 10.0 mi Calm Calm - N/A   Clear
10:58 PM 75.0 °F - 69.1 °F 82% 30.11 in 10.0 mi Calm Calm - N/A   Clear
11:58 PM 73.0 °F - 68.0 °F 84% 30.11 in 10.0 mi Calm Calm - N/A   Clear